TimeEST,TemperatureF,Dew PointF,Humidity,Sea Level PressureIn,VisibilityMPH,Wind Direction,Wind SpeedMPH,Gust SpeedMPH,PrecipitationIn,Events,Conditions,WindDirDegrees,DateUTC
12:15 AM,44.2,42.1,92,29.96,10.0,Calm,Calm,-,N/A,Rain,Rain,0,2013-02-13 05:15:00
12:35 AM,43.3,42.6,97,29.93,10.0,Calm,Calm,-,N/A,,Overcast,0,2013-02-13 05:35:00
12:55 AM,43.7,43.0,97,29.94,10.0,Calm,Calm,-,N/A,,Overcast,0,2013-02-13 05:55:00
1:15 AM,43.7,43.0,97,29.92,10.0,Calm,Calm,-,N/A,,Overcast,0,2013-02-13 06:15:00
1:35 AM,43.7,43.0,97,29.89,10.0,Calm,Calm,-,N/A,,Overcast,0,2013-02-13 06:35:00
1:55 AM,43.5,42.6,97,29.87,10.0,Calm,Calm,-,N/A,,Overcast,0,2013-02-13 06:55:00
2:15 AM,44.2,42.4,93,29.89,10.0,Calm,Calm,-,N/A,,Overcast,0,2013-02-13 07:15:00
2:35 AM,43.9,42.3,94,29.88,10.0,Calm,Calm,-,N/A,,Overcast,0,2013-02-13 07:35:00
2:55 AM,44.2,41.9,91,29.87,10.0,Calm,Calm,-,N/A,Rain,Light Rain,0,2013-02-13 07:55:00
3:15 AM,43.2,41.7,95,29.85,10.0,Calm,Calm,-,N/A,,Overcast,0,2013-02-13 08:15:00
3:35 AM,43.0,42.3,97,29.84,10.0,Calm,Calm,-,N/A,,Mostly Cloudy,0,2013-02-13 08:35:00
3:55 AM,43.0,42.3,97,29.83,10.0,Calm,Calm,-,N/A,,Mostly Cloudy,0,2013-02-13 08:55:00
4:15 AM,42.3,41.9,99,29.82,7.0,Calm,Calm,-,N/A,Rain,Light Rain,0,2013-02-13 09:15:00
4:35 AM,43.0,42.8,99,29.83,10.0,Calm,Calm,-,N/A,Rain,Rain,0,2013-02-13 09:35:00
4:55 AM,43.0,42.8,99,29.83,7.0,Calm,Calm,-,0.02,Rain,Rain,0,2013-02-13 09:55:00
5:15 AM,43.0,42.8,99,29.82,5.0,Calm,Calm,-,0.01,Rain,Heavy Rain,0,2013-02-13 10:15:00
5:35 AM,43.0,42.8,99,29.83,7.0,SSW,4.6,-,0.02,Rain,Rain,210,2013-02-13 10:35:00
5:55 AM,43.0,42.8,99,29.84,7.0,SW,3.5,-,0.04,Rain,Rain,220,2013-02-13 10:55:00
6:15 AM,42.8,42.4,99,29.84,7.0,Calm,Calm,-,N/A,Rain,Rain,0,2013-02-13 11:15:00
6:35 AM,42.8,42.4,99,29.81,7.0,Calm,Calm,-,0.01,Rain,Light Rain,0,2013-02-13 11:35:00
7:15 AM,42.8,42.6,99,29.82,7.0,Calm,Calm,-,0.01,Rain,Rain,0,2013-02-13 12:15:00
7:35 AM,42.8,42.4,99,29.81,5.0,Calm,Calm,-,0.01,Rain,Rain,0,2013-02-13 12:35:00
7:55 AM,42.8,42.8,100,29.82,4.0,Calm,Calm,-,0.02,Rain,Rain,0,2013-02-13 12:55:00
8:15 AM,42.8,42.8,100,29.82,4.0,Calm,Calm,-,0.01,Rain,Rain,0,2013-02-13 13:15:00
8:35 AM,43.2,43.2,100,29.83,4.0,Calm,Calm,-,0.02,Rain,Light Rain,0,2013-02-13 13:35:00
8:55 AM,43.2,43.2,100,29.82,4.0,Calm,Calm,-,0.02,,Light Drizzle,0,2013-02-13 13:55:00
9:15 AM,43.7,43.3,99,29.83,5.0,Calm,Calm,-,N/A,Rain,Light Rain,0,2013-02-13 14:15:00
9:35 AM,43.7,43.5,99,29.80,2.5,Calm,Calm,-,N/A,,Drizzle,0,2013-02-13 14:35:00
9:55 AM,43.7,43.3,99,29.80,3.0,Calm,Calm,-,N/A,,Drizzle,0,2013-02-13 14:55:00
10:15 AM,43.7,43.3,99,29.78,5.0,Calm,Calm,-,N/A,Rain,Light Rain,0,2013-02-13 15:15:00
10:35 AM,43.9,43.7,99,29.77,5.0,Calm,Calm,-,N/A,,Overcast,0,2013-02-13 15:35:00
10:55 AM,44.2,43.5,97,29.78,10.0,Calm,Calm,-,N/A,,Overcast,0,2013-02-13 15:55:00
11:15 AM,44.2,43.7,98,29.77,2.0,Calm,Calm,-,N/A,,Drizzle,0,2013-02-13 16:15:00
11:35 AM,44.1,43.5,98,29.76,2.0,Calm,Calm,-,N/A,Rain,Rain,0,2013-02-13 16:35:00
11:55 AM,44.6,43.9,97,29.74,2.5,Calm,Calm,-,N/A,,Drizzle,0,2013-02-13 16:55:00
12:15 PM,44.2,43.7,98,29.73,1.5,Calm,Calm,-,N/A,Rain,Rain,0,2013-02-13 17:15:00
12:35 PM,44.6,43.9,97,29.71,1.5,Calm,Calm,-,N/A,Rain,Light Rain,0,2013-02-13 17:35:00
12:55 PM,44.2,43.7,98,29.69,1.5,Calm,Calm,-,N/A,,Drizzle,0,2013-02-13 17:55:00
1:15 PM,44.4,43.9,98,29.67,2.0,Calm,Calm,-,0.01,Rain,Light Rain,0,2013-02-13 18:15:00
1:35 PM,44.6,44.1,98,29.67,2.0,Calm,Calm,-,0.01,Rain,Light Rain,0,2013-02-13 18:35:00
1:55 PM,44.4,43.5,97,29.65,1.2,Calm,Calm,-,0.01,Rain,Rain,0,2013-02-13 18:55:00
2:15 PM,44.8,43.7,96,29.65,3.0,Calm,Calm,-,N/A,,Overcast,0,2013-02-13 19:15:00
2:35 PM,44.8,43.9,97,29.65,2.5,SSW,3.5,-,N/A,,Overcast,200,2013-02-13 19:35:00
2:55 PM,44.8,43.9,97,29.65,2.0,Calm,Calm,-,N/A,,Overcast,0,2013-02-13 19:55:00
3:15 PM,45.0,44.2,97,29.65,2.5,SSW,3.5,-,N/A,,Overcast,210,2013-02-13 20:15:00
3:35 PM,45.0,44.6,99,29.64,2.5,SSW,5.8,-,N/A,,Overcast,210,2013-02-13 20:35:00
3:55 PM,45.1,44.6,98,29.65,2.0,Calm,Calm,-,N/A,,Overcast,0,2013-02-13 20:55:00
4:15 PM,44.8,44.4,99,29.64,2.5,West,3.5,-,N/A,Rain,Light Rain,260,2013-02-13 21:15:00
4:35 PM,44.8,44.6,99,29.66,1.8,Calm,Calm,-,N/A,Rain,Heavy Rain,0,2013-02-13 21:35:00
4:55 PM,45.1,44.8,99,29.65,3.0,SW,4.6,-,N/A,,Light Drizzle,220,2013-02-13 21:55:00
5:15 PM,45.5,44.8,97,29.66,10.0,SW,3.5,-,N/A,,Overcast,230,2013-02-13 22:15:00
5:35 PM,45.5,44.6,97,29.66,10.0,SW,5.8,-,N/A,,Overcast,230,2013-02-13 22:35:00
5:55 PM,45.5,44.6,97,29.66,10.0,SW,4.6,-,N/A,,Overcast,230,2013-02-13 22:55:00
6:15 PM,45.5,44.6,97,29.66,10.0,SW,4.6,-,N/A,,Overcast,230,2013-02-13 23:15:00
6:35 PM,45.5,44.6,97,29.68,10.0,SW,4.6,-,N/A,,Overcast,220,2013-02-13 23:35:00
6:55 PM,45.5,44.2,95,29.70,10.0,WSW,6.9,-,N/A,,Overcast,240,2013-02-13 23:55:00
7:15 PM,45.3,44.4,97,29.71,10.0,WSW,5.8,-,N/A,,Light Drizzle,240,2013-02-14 00:15:00
7:35 PM,45.5,44.6,97,29.72,7.0,WSW,8.1,-,N/A,,Light Drizzle,250,2013-02-14 00:35:00
7:55 PM,44.8,43.5,95,29.72,10.0,WSW,5.8,-,N/A,,Scattered Clouds,250,2013-02-14 00:55:00
8:15 PM,44.2,43.0,95,29.75,10.0,West,8.1,-,N/A,,Clear,270,2013-02-14 01:15:00
8:35 PM,43.2,37.4,80,29.76,10.0,WNW,6.9,17.3,N/A,,Clear,290,2013-02-14 01:35:00
8:55 PM,41.4,35.8,81,29.78,10.0,WNW,3.5,-,N/A,,Clear,290,2013-02-14 01:55:00
9:15 PM,39.2,35.1,85,29.78,10.0,West,3.5,-,N/A,,Clear,270,2013-02-14 02:15:00
9:35 PM,38.1,34.7,87,29.80,10.0,Calm,Calm,-,N/A,,Clear,0,2013-02-14 02:35:00
9:55 PM,37.9,34.2,86,29.80,10.0,Calm,Calm,-,N/A,,Clear,0,2013-02-14 02:55:00
10:15 PM,39.2,33.1,79,29.81,10.0,WNW,3.5,-,N/A,,Clear,300,2013-02-14 03:15:00
10:35 PM,38.3,32.9,81,29.82,10.0,Calm,Calm,-,N/A,,Clear,0,2013-02-14 03:35:00
10:55 PM,36.5,33.1,87,29.83,10.0,Calm,Calm,-,N/A,,Clear,0,2013-02-14 03:55:00
11:15 PM,33.6,32.5,96,29.82,10.0,Calm,Calm,-,N/A,,Clear,0,2013-02-14 04:15:00
11:35 PM,35.2,32.2,89,29.83,10.0,Calm,Calm,-,N/A,,Clear,0,2013-02-14 04:35:00
11:55 PM,34.9,32.0,89,29.84,10.0,Calm,Calm,-,N/A,,Clear,0,2013-02-14 04:55:00